Погода в Симферополе

Казахстан     52°26′04″N   65°22′04″E
темп.,
°C
ветер,
м/с
пор.,
м/с
влажн.,
%
обл.,
%
осадки,
мм/ч
давл.,
гПа
погр.,
м
25 февраля, чт
чт2500:00−27ссз339875 0.0 100925
03:00−25сз3610091 0.1 1012134
06:00−22ссз8149596 0.3 1016649
09:00−23сз61196100 0.1 1020482
12:00−24сз6894100 0.1 1024483
15:00−24зсз5793100 0.0 1028488
18:00−25з4795100 0.0 1030193
21:00−29з449626 0.0 103353
26 февраля, пт
пт2600:00−30зюз449613 0.0 103445
03:00−31юз45970 0.0 103457
06:00−31юз45950 0.0 103562
09:00−31ююз47960 0.0 1035105
12:00−26ююз57940 0.0 1036232
15:00−24ююз589326 0.0 1034309
18:00−25ю599331 0.0 1034295
21:00−28ю49967 0.0 1034151
27 февраля, сб
сб2700:00−28ю489737 0.0 1032131
03:00−26ю499677 0.0 1031163
06:00−24ююв499577 0.0 1029181
09:00−20ююв6109584 0.0 1026247
12:00−15ююв8139190 0.1 1024438
15:00−11ю91590100 0.1 1020789
18:00−10ю101692100 0.6 1017851
21:00−8ю111892100 1.3 1010919
28 февраля, вс
вс2800:00−7ю111893100 3.6 1007878
03:00−4ююз111992100 0.9 1004600
06:00−1ююз7139897 1.3 1002514
09:00−2юз6119393 0.1 1002331
12:00−1юз6129296 0.2 1003652
15:000юз71187100 0.1 1004869
18:00−1юз6129299 0.2 1004701
21:00−2юз5119697 0.3 1004435
1 марта, пн
пн100:00−2юз6119698 1.0 1005518
03:00−4юз61194100 0.7 1006544
06:00−9зюз61094100 1.0 1008304
09:00−11зюз5895100 0.4 1010251
12:00−14сз4595100 0.9 1013277
15:00−15сз469596 0.1 1016309
18:00−17сз349698 0.1 1018107
21:00−21сз2210054 0.0 102020